Weather History for Fremont, MI

Change the Weather History Date:

Saturday, March 30, 2013

  Actual Average (KMKG) Record (KMKG)
Temperature  
Mean Temperature 37 °F 40 °F  
Max Temperature 52 °F 49 °F 77 °F (1967)
Min Temperature 22 °F 31 °F 7 °F (1954)
Degree Days  
Heating Degree Days 28 25  
Month to date heating degree days 906  
Since 1 July heating degree days 5638  
Cooling Degree Days 0 0  
Month to date cooling degree days 0  
Year to date cooling degree days 0  
Moisture  
Dew Point 24 °F    
Average Humidity 61    
Maximum Humidity 100    
Minimum Humidity 23    
Precipitation  
Precipitation 0.00 in 0.08 in 1.07 in (1974)
Month to date precipitation 2.17  
Year to date precipitation 6.03  
Snow  
Snow 0.00 in 0.10 in 4.50 in (1974)
Month to date snowfall 8.8  
Since 1 July snowfall 91.2  
Snow Depth -    
Sea Level Pressure  
Sea Level Pressure 30.07 in    
Wind  
Wind Speed 4 mph (South)    
Max Wind Speed 16 mph    
Max Gust Speed 21 mph    
Visibility 10 miles    
Events Rain    
T = Trace of Precipitation, MM = Missing Value Source: NWS Daily Summary

Daily Weather History Graph

Daily Weather History Graph

Search for Another Location

Airport:

Trip Planner

Search our weather history database for the weather conditions in past years. The results will help you decide how hot, cold, wet, or windy it might be!

Date:

Astronomy

Mar. 30, 2013 Rise Set
Actual Time 7:28 AM EDT 8:08 PM EDT
Civil Twilight 7:00 AM EDT 8:37 PM EDT
Nautical Twilight 6:25 AM EDT 9:11 PM EDT
Astronomical Twilight 5:50 AM EDT 9:47 PM EDT
Moon No Moon Rise 9:16 AM EDT (3/30)
Length of Visible Light 13h 37m
Length of Day
12h 39m
Waning Gibbous, 86% of the Moon is Illuminated
Mar 30
Waning Gibbous
Apr 3
Last Quarter
Apr 10
New
Apr 18
First Quarter
Apr 25
Full

Hourly Weather History & Observations

Time (EDT) Temp. Windchill Dew Point Humidity Pressure Visibility Wind Dir Wind Speed Gust Speed Precip Events Conditions
12:15 AM 29.1 °F 25.4 °F 21.9 °F 74% 30.22 in 10.0 mi West 3.5 mph - N/A   Clear
12:34 AM 28.9 °F - 21.2 °F 73% 30.22 in 10.0 mi Calm Calm - N/A   Clear
12:55 AM 29.3 °F - 22.1 °F 75% 30.22 in 10.0 mi Calm Calm - N/A   Clear
1:14 AM 29.3 °F - 22.1 °F 75% 30.21 in 10.0 mi Calm Calm - N/A   Clear
1:35 AM 27.7 °F - 22.8 °F 82% 30.22 in 10.0 mi Calm Calm - N/A   Clear
2:15 AM 25.3 °F - 20.5 °F 82% 30.22 in 10.0 mi Calm Calm - N/A   Clear
2:34 AM 26.4 °F - 22.1 °F 84% 30.21 in 10.0 mi Calm Calm - N/A   Clear
2:55 AM 26.8 °F - 23.5 °F 88% 30.21 in 10.0 mi Calm Calm - N/A   Clear
3:14 AM 25.7 °F - 23.9 °F 93% 30.21 in 10.0 mi Calm Calm - N/A   Clear
3:34 AM 25.5 °F - 22.8 °F 89% 30.21 in 10.0 mi Calm Calm - N/A   Clear
3:55 AM 25.3 °F - 23.2 °F 91% 30.21 in 10.0 mi Calm Calm - N/A   Clear
4:15 AM 25.5 °F - 24.4 °F 96% 30.20 in 10.0 mi Calm Calm - N/A   Clear
4:34 AM 24.1 °F 19.7 °F 23.2 °F 96% 30.20 in 10.0 mi SW 3.5 mph - N/A   Clear
4:55 AM 24.1 °F - 23.2 °F 96% 30.20 in 10.0 mi Calm Calm - N/A   Clear
5:14 AM 24.3 °F - 23.5 °F 97% 30.19 in 10.0 mi Calm Calm - N/A   Clear
5:35 AM 23.9 °F - 23.0 °F 96% 30.19 in 10.0 mi Calm Calm - N/A   Clear
5:55 AM 23.9 °F - 23.7 °F 99% 30.19 in 10.0 mi Calm Calm - N/A   Clear
6:14 AM 23.7 °F - 23.5 °F 99% 30.19 in 10.0 mi Calm Calm - N/A   Clear
6:34 AM 23.0 °F - 23.0 °F 100% 30.19 in 10.0 mi Calm Calm - N/A   Clear
6:54 AM 23.0 °F - 23.0 °F 100% 30.19 in 10.0 mi Calm Calm - N/A   Clear
7:15 AM 22.3 °F - 21.9 °F 99% 30.19 in 10.0 mi Calm Calm - N/A   Clear
7:35 AM 22.6 °F - 22.5 °F 99% 30.19 in 10.0 mi Calm Calm - N/A   Clear
7:54 AM 22.1 °F - 21.9 °F 99% 30.19 in 10.0 mi Calm Calm - N/A   Clear
8:15 AM 24.1 °F 19.7 °F 23.9 °F 99% 30.18 in 10.0 mi East 3.5 mph - N/A   Clear
8:34 AM 26.4 °F - 26.1 °F 99% 30.18 in 10.0 mi Calm Calm - N/A   Clear
8:54 AM 28.6 °F 24.8 °F 27.5 °F 96% 30.17 in 10.0 mi East 3.5 mph - N/A   Clear
9:15 AM 30.6 °F 27.1 °F 28.4 °F 92% 30.16 in 10.0 mi East 3.5 mph - N/A   Clear
9:34 AM 31.8 °F - 29.7 °F 92% 30.16 in 10.0 mi Calm Calm - N/A   Clear
9:55 AM 34.0 °F - 30.2 °F 86% 30.16 in 10.0 mi Calm Calm - N/A   Clear
10:15 AM 36.0 °F 32.1 °F 27.3 °F 71% 30.14 in 10.0 mi South 4.6 mph - N/A   Clear
10:34 AM 37.6 °F 32.3 °F 25.7 °F 62% 30.15 in 10.0 mi South 6.9 mph - N/A   Clear
10:55 AM 39.2 °F 33.6 °F 20.8 °F 48% 30.14 in 10.0 mi South 8.1 mph - N/A   Clear
11:14 AM 40.3 °F 35.5 °F 19.2 °F 43% 30.13 in 10.0 mi SSE 6.9 mph - N/A   Clear
11:35 AM 41.9 °F 37.5 °F 19.9 °F 42% 30.13 in 10.0 mi South 6.9 mph - N/A   Clear
11:54 AM 43.0 °F 38.2 °F 20.3 °F 40% 30.13 in 10.0 mi South 8.1 mph - N/A   Clear
12:14 PM 44.2 °F 39.7 °F 21.4 °F 40% 30.11 in 10.0 mi South 8.1 mph - N/A   Clear
12:35 PM 44.2 °F 39.7 °F 20.3 °F 39% 30.10 in 10.0 mi South 8.1 mph - N/A   Clear
12:54 PM 46.2 °F 41.7 °F 18.3 °F 33% 30.09 in 10.0 mi South 9.2 mph - N/A   Clear
1:14 PM 47.1 °F - 16.2 °F 29% 30.09 in 10.0 mi South 8.1 mph - N/A   Clear
1:35 PM 47.8 °F - 17.2 °F 30% 30.07 in 10.0 mi SSW 4.6 mph 16.1 mph N/A   Clear
1:54 PM 48.9 °F - 18.1 °F 30% 30.06 in 10.0 mi South 9.2 mph - N/A   Clear
2:15 PM 50.0 °F - 17.1 °F 27% 30.05 in 10.0 mi South 11.5 mph 16.1 mph N/A   Clear
2:35 PM 50.4 °F - 13.5 °F 23% 30.03 in 10.0 mi SSE 12.7 mph 18.4 mph N/A   Clear
2:54 PM 50.0 °F - 14.2 °F 24% 30.03 in 10.0 mi South 16.1 mph 20.7 mph N/A   Mostly Cloudy
3:15 PM 50.9 °F - 15.1 °F 24% 30.01 in 10.0 mi South 10.4 mph 18.4 mph N/A   Mostly Cloudy
3:34 PM 50.9 °F - 14.2 °F 23% 30.00 in 10.0 mi South 10.4 mph 13.8 mph N/A   Mostly Cloudy
3:55 PM 51.8 °F - 16.3 °F 25% 29.99 in 10.0 mi South 13.8 mph 19.6 mph N/A   Mostly Cloudy
4:15 PM 51.8 °F - 18.0 °F 26% 29.98 in 10.0 mi South 12.7 mph 18.4 mph N/A   Scattered Clouds
4:34 PM 52.7 °F - 19.8 °F 27% 29.97 in 10.0 mi South 12.7 mph - N/A   Scattered Clouds
4:55 PM 52.7 °F - 21.2 °F 29% 29.97 in 10.0 mi South 13.8 mph 20.7 mph N/A   Mostly Cloudy
5:14 PM 51.8 °F - 22.8 °F 32% 29.96 in 10.0 mi South 10.4 mph - N/A   Mostly Cloudy
5:34 PM 52.3 °F - 24.4 °F 34% 29.95 in 10.0 mi South 12.7 mph - N/A   Overcast
5:54 PM 51.6 °F - 25.3 °F 36% 29.95 in 10.0 mi South 12.7 mph - N/A   Mostly Cloudy
6:14 PM 51.1 °F - 25.5 °F 37% 29.94 in 10.0 mi South 9.2 mph - N/A   Mostly Cloudy
6:35 PM 51.8 °F - 25.2 °F 36% 29.93 in 10.0 mi SSW 11.5 mph - N/A   Overcast
6:54 PM 51.6 °F - 23.7 °F 34% 29.92 in 10.0 mi South 10.4 mph - N/A   Mostly Cloudy
7:15 PM 50.9 °F - 24.6 °F 36% 29.92 in 10.0 mi South 5.8 mph - N/A   Scattered Clouds
7:35 PM 50.2 °F - 24.3 °F 36% 29.91 in 10.0 mi SSE 4.6 mph - N/A   Mostly Cloudy
7:54 PM 49.6 °F - 25.7 °F 39% 29.90 in 10.0 mi South 5.8 mph - N/A   Overcast
8:15 PM 48.4 °F - 27.5 °F 44% 29.89 in 10.0 mi South 5.8 mph - N/A   Overcast
8:34 PM 47.8 °F - 27.9 °F 46% 29.89 in 10.0 mi South 4.6 mph - N/A   Mostly Cloudy
8:55 PM 48.4 °F - 28.2 °F 46% 29.89 in 10.0 mi South 6.9 mph - N/A   Mostly Cloudy
9:14 PM 47.7 °F - 28.2 °F 47% 29.89 in 10.0 mi South 3.5 mph - N/A   Overcast
9:35 PM 46.4 °F 43.5 °F 30.2 °F 53% 29.88 in 10.0 mi South 5.8 mph - N/A   Overcast
9:55 PM 47.1 °F - 30.7 °F 53% 29.89 in 10.0 mi SSW 4.6 mph - N/A   Overcast
10:15 PM 48.0 °F - 30.7 °F 51% 29.88 in 10.0 mi South 3.5 mph - N/A   Overcast
10:34 PM 46.9 °F - 32.0 °F 56% 29.88 in 10.0 mi SSW 4.6 mph - N/A   Light Drizzle
10:54 PM 47.8 °F - 31.6 °F 53% 29.86 in 10.0 mi SSE 4.6 mph - N/A   Overcast
11:15 PM 46.9 °F - 34.2 °F 61% 29.86 in 10.0 mi SSW 6.9 mph - N/A   Drizzle
11:34 PM 46.6 °F - 34.5 °F 63% 29.86 in 10.0 mi SSW 8.1 mph - N/A Rain Rain
11:55 PM 45.7 °F 42.0 °F 35.8 °F 68% 29.85 in 10.0 mi SSW 6.9 mph - N/A   Light Drizzle